Weather History for PADE - February, 2013

Change the Weather History Date:

Monday, February 4, 2013

  Actual Average (PAOT) Record (PAOT)
Temperature  
Mean Temperature 8 °F -2 °F  
Max Temperature 9 °F - 35 °F (1982)
Min Temperature 6 °F -9 °F -49 °F (1968)
Degree Days  
Heating Degree Days 58 67  
Month to date heating degree days 269  
Since 1 July heating degree days 8668  
Cooling Degree Days 0    
Month to date cooling degree days  
Year to date cooling degree days  
Moisture  
Dew Point 2 °F    
Average Humidity 80    
Maximum Humidity 85    
Minimum Humidity 72    
Precipitation  
Precipitation 0.00 in 0.03 in 0.41 in (2012)
Month to date precipitation 0.09  
Year to date precipitation 0.71  
Snow  
Snow 0.00 in 0.30 in 6.00 in (2003)
Month to date snowfall 1.3  
Since 1 July snowfall 39.3  
Snow Depth -    
Sea Level Pressure  
Sea Level Pressure 29.67 in    
Wind  
Wind Speed 11 mph (North)    
Max Wind Speed 16 mph    
Max Gust Speed -    
Visibility 8 miles    
Events Snow    
T = Trace of Precipitation, MM = Missing Value Source: NWS Daily Summary

Daily Weather History Graph

Daily Weather History Graph

Search for Another Location

Airport or City:

Trip Planner

Search our weather history database for the weather conditions in past years. The results will help you decide how hot, cold, wet, or windy it might be!

Date:

Astronomy

Feb. 04, 2013 Rise Set
Actual Time 10:34 AM AKST 5:36 PM AKST
Civil Twilight 9:33 AM AKST 6:37 PM AKST
Nautical Twilight 8:31 AM AKST 7:40 PM AKST
Astronomical Twilight 7:31 AM AKST 8:39 PM AKST
Moon 6:14 AM AKST (2/4) 11:15 AM AKST (2/4)
Length of Visible Light 9h 03m
Length of Day
7h 01m
Waning Crescent, 35% of the Moon is Illuminated
Feb 4
Waning Crescent
Feb 9
New
Feb 17
First Quarter
Feb 25
Full
Mar 4
Last Quarter

Hourly Weather History & Observations

Time (AKST) Temp. Windchill Dew Point Humidity Pressure Visibility Wind Dir Wind Speed Gust Speed Precip Events Conditions
3:03 AM 6.8 °F -7.8 °F 1.4 °F 79% 29.61 in 1.8 mi West 10.4 mph - 0.00 in Snow Light Snow
3:16 AM 6.8 °F -7.8 °F 1.4 °F 79% 29.61 in 2.0 mi West 10.4 mph - 0.00 in Snow Light Snow
3:43 AM 6.8 °F -6.9 °F 3.2 °F 85% 29.61 in 1.8 mi West 9.2 mph - 0.00 in Snow Light Snow
3:53 AM 7.0 °F -6.6 °F 3.0 °F 84% 29.62 in 1.5 mi West 9.2 mph - 0.00 in Snow Light Snow
4:11 AM 6.8 °F -6.9 °F 3.2 °F 85% 29.62 in 2.0 mi West 9.2 mph - 0.00 in Snow Light Snow
4:23 AM 6.8 °F -6.9 °F 3.2 °F 85% 29.62 in 4.0 mi West 9.2 mph - 0.00 in Snow Light Snow
4:33 AM 6.8 °F -5.9 °F 3.2 °F 85% 29.62 in 6.0 mi West 8.1 mph - 0.00 in   Overcast
4:53 AM 7.0 °F -5.7 °F 3.0 °F 84% 29.63 in 8.0 mi WNW 8.1 mph - 0.00 in   Overcast
5:36 AM 6.8 °F -4.8 °F 3.2 °F 85% 29.63 in 10.0 mi WNW 6.9 mph - N/A   Overcast
5:53 AM 7.0 °F -4.5 °F 3.0 °F 84% 29.63 in 10.0 mi WNW 6.9 mph - N/A   Overcast
6:53 AM 9.0 °F -3.2 °F 3.9 °F 80% 29.63 in 10.0 mi NNE 8.1 mph - N/A   Overcast
7:53 AM 9.0 °F -3.2 °F 3.0 °F 77% 29.65 in 10.0 mi NE 8.1 mph - N/A   Overcast
8:53 AM 8.1 °F -9.0 °F 1.0 °F 73% 29.66 in 10.0 mi NE 15.0 mph - N/A   Overcast
9:53 AM 7.0 °F -10.4 °F 1.0 °F 77% 29.67 in 4.0 mi NE 15.0 mph - 0.00 in Snow Light Snow
10:27 AM 6.8 °F -9.3 °F -0.4 °F 72% 29.66 in 6.0 mi NE 12.7 mph - 0.00 in Snow Light Snow
10:53 AM 6.1 °F -10.9 °F -0.0 °F 76% 29.67 in 10.0 mi NE 13.8 mph - 0.00 in   Partly Cloudy
11:53 AM 7.0 °F -6.6 °F 1.0 °F 77% 29.69 in 10.0 mi NNE 9.2 mph - N/A   Overcast
12:53 PM 7.0 °F -9.1 °F 1.0 °F 77% 29.70 in 4.0 mi NNE 12.7 mph - 0.00 in Snow Light Snow
1:53 PM 7.0 °F -9.8 °F 1.0 °F 77% 29.70 in 10.0 mi NE 13.8 mph - 0.00 in   Overcast
2:32 PM 6.8 °F -10.7 °F 1.4 °F 79% 29.70 in 10.0 mi NNE 15.0 mph - N/A   Overcast
2:53 PM 8.1 °F -9.6 °F 1.9 °F 76% 29.70 in 10.0 mi NNE 16.1 mph - N/A   Overcast
3:53 PM 8.1 °F -7.7 °F 1.9 °F 76% 29.71 in 10.0 mi NNE 12.7 mph - N/A   Overcast
4:53 PM 8.1 °F -7.0 °F 3.0 °F 80% 29.71 in 10.0 mi NNE 11.5 mph - N/A   Overcast
5:53 PM 8.1 °F -7.7 °F 3.0 °F 80% 29.71 in 10.0 mi NNE 12.7 mph - N/A   Overcast
6:46 PM 8.6 °F -7.7 °F 3.2 °F 79% 29.71 in 10.0 mi NNE 13.8 mph - N/A   Overcast
6:53 PM 8.1 °F -9.0 °F 3.0 °F 80% 29.72 in 10.0 mi NNE 15.0 mph - N/A   Overcast
7:53 PM 8.1 °F -9.0 °F 3.0 °F 80% 29.73 in 10.0 mi NNE 15.0 mph - N/A   Overcast
8:53 PM 8.1 °F -7.0 °F 3.0 °F 80% 29.73 in 10.0 mi NE 11.5 mph - N/A   Overcast
9:53 PM 8.1 °F -7.0 °F 3.0 °F 80% 29.74 in 10.0 mi NE 11.5 mph - N/A   Overcast
10:53 PM 9.0 °F -8.5 °F 3.9 °F 80% 29.74 in 10.0 mi NNE 16.1 mph - N/A   Overcast
11:53 PM 9.0 °F -6.6 °F 3.0 °F 77% 29.75 in 10.0 mi NNE 12.7 mph - N/A   Overcast